Tracking 18980 objects as of 22-Feb-2018
HD Live streaming from Space Station
objects crossing your sky now

COSMOS 590


10-day predictions
COSMOS 590 is classified as:


NORAD ID: 6847
Int'l Code: 1973-069C
Perigee: 1,439.7 km
Apogee: 1,494.7 km
Inclination: 74.0 °
Period: 115.1 minutes
Semi major axis: 7838 km
RCS: 0.7061 m2 (medium)
Launch date: October 2, 1973
Source: Commonwealth of Independent States (former USSR) (CIS)
Launch site: PLESETSK MISSILE AND SPACE COMPLEX (PKMTR)
aabbcc
Your satellite tracking list
Your tracking list is empty




NASA's NSSDC Master Catalog

Two Line Element Set (TLE):
1  6847U 73069C   18051.90159458 -.00000016 +00000-0 +44459-5 0  9995
2  6847 074.0024 326.2091 0035122 244.0155 181.8395 12.51063448027087
Source of the keplerian elements: AFSPC